Weather History for Poplar Bluff, MO

Change the Weather History Date:

Monday, February 13, 2012

  Actual Average Record
Temperature  
Mean Temperature 30 °F -  
Max Temperature 34 °F 45 °F 83 °F (1962)
Min Temperature 25 °F 26 °F 2 °F (1988)
Degree Days  
Heating Degree Days 36    
Moisture  
Dew Point 27 °F    
Average Humidity 83    
Maximum Humidity 93    
Minimum Humidity 54    
Precipitation  
Precipitation 0.28 in - - ()
Sea Level Pressure  
Sea Level Pressure 30.07 in    
Wind  
Wind Speed 6 mph (SSE)    
Max Wind Speed 15 mph    
Max Gust Speed 18 mph    
Visibility 5 miles    
Events Rain , Snow    
Averages and records for this station are not official NWS values.
T = Trace of Precipitation, MM = Missing Value Source: NWS Daily Summary

Daily Weather History Graph

Daily Weather History Graph

Search for Another Location

Airport:

Trip Planner

Search our weather history database for the weather conditions in past years. The results will help you decide how hot, cold, wet, or windy it might be!

Date:

Astronomy

Feb. 13, 2012 Rise Set
Actual Time 6:52 AM CST 5:39 PM CST
Civil Twilight 6:25 AM CST 6:05 PM CST
Nautical Twilight 5:55 AM CST 6:36 PM CST
Astronomical Twilight 5:25 AM CST 7:06 PM CST
Moon No Moon Rise 10:03 AM CST (2/13)
Length of Visible Light 11h 40m
Length of Day
10h 46m
Waning Gibbous, 61% of the Moon is Illuminated
Feb 13
Waning Gibbous
Feb 14
Last Quarter
Feb 21
New
Feb 29
First Quarter
Mar 8
Full

Hourly Weather History & Observations

Time (CST) Temp. Windchill Dew Point Humidity Pressure Visibility Wind Dir Wind Speed Gust Speed Precip Events Conditions
12:53 AM 25.0 °F - 19.9 °F 81% 30.34 in 10.0 mi Calm Calm - N/A   Clear
1:53 AM 25.0 °F - 21.0 °F 85% 30.32 in 10.0 mi Calm Calm - N/A   Partly Cloudy
2:53 AM 26.1 °F - 21.0 °F 81% 30.30 in 10.0 mi Calm Calm - N/A   Partly Cloudy
3:53 AM 28.0 °F - 21.9 °F 78% 30.28 in 10.0 mi Calm Calm - N/A   Overcast
4:53 AM 28.9 °F - 21.0 °F 72% 30.27 in 10.0 mi Calm Calm - N/A   Overcast
5:53 AM 30.0 °F 26.5 °F 21.9 °F 72% 30.27 in 10.0 mi SSE 3.5 mph - N/A   Overcast
6:53 AM 30.0 °F 26.5 °F 21.0 °F 69% 30.27 in 10.0 mi South 3.5 mph - N/A   Overcast
7:53 AM 30.9 °F 27.5 °F 21.0 °F 67% 30.24 in 10.0 mi East 3.5 mph - N/A   Overcast
8:53 AM 32.0 °F 26.4 °F 21.0 °F 64% 30.24 in 10.0 mi SSE 5.8 mph - N/A   Overcast
9:53 AM 33.1 °F 26.1 °F 19.0 °F 56% 30.23 in 10.0 mi South 8.1 mph - N/A   Overcast
10:53 AM 34.0 °F 26.0 °F 19.0 °F 54% 30.20 in 10.0 mi South 10.4 mph - N/A   Overcast
11:30 AM 33.8 °F 23.9 °F 21.2 °F 60% 30.16 in 2.0 mi South 15.0 mph 18.4 mph 0.00 in Snow Light Snow
11:39 AM 32.0 °F 23.0 °F 24.8 °F 75% 30.15 in 1.2 mi South 11.5 mph - 0.00 in Snow Light Snow
11:48 AM 32.0 °F 26.4 °F 24.8 °F 75% 30.14 in 3.0 mi South 5.8 mph - 0.00 in Snow Light Snow
11:53 AM 32.0 °F 25.6 °F 25.0 °F 75% 30.17 in 7.0 mi South 6.9 mph - 0.00 in Snow Light Snow
12:05 PM 33.8 °F 27.7 °F 24.8 °F 70% 30.13 in 10.0 mi South 6.9 mph - 0.00 in   Overcast
12:53 PM 34.0 °F 24.2 °F 24.1 °F 67% 30.12 in 5.0 mi South 15.0 mph 18.4 mph 0.00 in Snow Light Snow
1:33 PM 33.8 °F 26.4 °F 26.6 °F 75% 30.07 in 2.0 mi South 9.2 mph - 0.00 in Snow Light Snow
1:53 PM 32.0 °F 24.8 °F 28.0 °F 85% 30.09 in 2.5 mi South 8.1 mph - 0.00 in Snow Light Snow
2:02 PM 32.0 °F 24.8 °F 26.6 °F 80% 30.06 in 3.0 mi South 8.1 mph - 0.00 in Snow Light Snow
2:10 PM 32.0 °F 24.8 °F 26.6 °F 80% 30.06 in 3.0 mi South 8.1 mph - 0.00 in Snow Light Snow
2:23 PM 32.0 °F 25.6 °F 26.6 °F 80% 30.06 in 2.0 mi South 6.9 mph - 0.00 in Snow Light Snow
2:26 PM 32.0 °F 24.8 °F 26.6 °F 80% 30.06 in 1.8 mi South 8.1 mph - 0.00 in Snow Light Snow
2:53 PM 30.9 °F 25.2 °F 28.9 °F 92% 30.07 in 0.8 mi SSE 5.8 mph - 0.02 in Snow Light Snow
3:02 PM 30.2 °F 21.9 °F 28.4 °F 93% 30.04 in 0.8 mi SSE 9.2 mph - 0.01 in Snow Light Snow
3:12 PM 30.2 °F 22.6 °F 28.4 °F 93% 30.04 in 1.2 mi South 8.1 mph - 0.02 in Snow Light Snow
3:26 PM 30.2 °F 21.3 °F 28.4 °F 93% 30.03 in 0.8 mi South 10.4 mph - 0.04 in Snow Light Snow
3:35 PM 30.2 °F 21.3 °F 28.4 °F 93% 30.02 in 1.0 mi South 10.4 mph - 0.06 in Snow Light Snow
3:53 PM 30.9 °F 22.2 °F 28.0 °F 89% 30.03 in 0.8 mi SSE 10.4 mph - 0.08 in Snow Light Snow
4:04 PM 30.2 °F 21.9 °F 28.4 °F 93% 29.99 in 1.2 mi SE 9.2 mph - 0.00 in Snow Light Snow
4:09 PM 30.2 °F 21.3 °F 28.4 °F 93% 29.99 in 2.0 mi SSE 10.4 mph - 0.01 in Snow Light Snow
4:18 PM 30.2 °F 21.3 °F 28.4 °F 93% 30.00 in 6.0 mi SSE 10.4 mph - 0.01 in   Overcast
4:53 PM 30.9 °F 22.2 °F 28.0 °F 89% 30.01 in 2.0 mi SSE 10.4 mph - 0.02 in Snow Light Snow
5:05 PM 32.0 °F 24.8 °F 28.4 °F 87% 29.99 in 4.0 mi South 8.1 mph - 0.02 in Rain Light Freezing Rain
5:15 PM 32.0 °F 23.6 °F 28.4 °F 87% 29.98 in 4.0 mi SSE 10.4 mph - 0.02 in Snow Light Snow
5:35 PM 32.0 °F 23.6 °F 28.4 °F 87% 29.96 in 3.0 mi SE 10.4 mph - 0.03 in   Overcast
5:43 PM 32.0 °F 24.2 °F 28.4 °F 87% 29.97 in 3.0 mi SSE 9.2 mph - 0.04 in Rain Light Freezing Rain
5:53 PM 32.0 °F 22.5 °F 28.9 °F 88% 29.99 in 8.0 mi SSE 12.7 mph - 0.04 in Rain Light Freezing Rain
6:14 PM 32.0 °F 22.5 °F 28.4 °F 87% 29.96 in 7.0 mi SSE 12.7 mph - 0.00 in   Overcast
6:26 PM 32.0 °F 23.6 °F 28.4 °F 87% 29.96 in 5.0 mi SSE 10.4 mph - 0.02 in Rain Light Freezing Rain
6:49 PM 32.0 °F 24.2 °F 28.4 °F 87% 29.97 in 10.0 mi SSE 9.2 mph - 0.03 in Rain Light Freezing Rain
6:53 PM 32.0 °F 24.2 °F 28.9 °F 88% 29.99 in 10.0 mi SSE 9.2 mph - 0.03 in Rain Light Freezing Rain
7:53 PM 32.0 °F 24.2 °F 30.0 °F 92% 29.98 in 10.0 mi SSE 9.2 mph - 0.02 in Rain Light Freezing Rain
8:09 PM 33.8 °F 28.6 °F 30.2 °F 87% 29.96 in 7.0 mi South 5.8 mph - 0.00 in Rain Light Freezing Rain
8:19 PM 32.0 °F 26.4 °F 30.2 °F 93% 29.96 in 5.0 mi SSE 5.8 mph - 0.00 in Rain Light Freezing Rain
8:53 PM 33.1 °F 27.7 °F 30.9 °F 92% 29.98 in 2.5 mi SSE 5.8 mph - 0.02 in Rain Light Freezing Rain
8:58 PM 32.0 °F 27.5 °F 30.2 °F 93% 29.96 in 3.0 mi SSE 4.6 mph - 0.00 in   Overcast
9:53 PM 33.1 °F 28.7 °F 30.9 °F 92% 29.97 in 3.0 mi SSE 4.6 mph - 0.02 in   Overcast
10:06 PM 33.8 °F 29.6 °F 30.2 °F 87% 29.94 in 3.0 mi SSE 4.6 mph - N/A   Overcast
10:37 PM 33.8 °F 30.8 °F 30.2 °F 87% 29.93 in 2.5 mi SSE 3.5 mph - N/A   Overcast
10:53 PM 33.1 °F - 30.9 °F 92% 29.95 in 2.5 mi Calm Calm - 0.01 in   Overcast
11:53 PM 33.1 °F 28.7 °F 30.9 °F 92% 29.93 in 2.5 mi SSE 4.6 mph - 0.02 in   Overcast